Location: Hastringsfeld
(50.9620°N, 10.4787°E)
Time: 03:56:35
(UTC+00:00)

NOSS 2-2 (C) - Pass Details

Date: 26 September 2023
Orbit: 416 x 1756 km, 63.3° (Epoch: 03 November)

Event Time Altitude Azimuth Distance (km) Brightness Sun altitude
Exits shadow 03:15:49 23° 297° (WNW) 1,442 5.1 -18.4°
Maximum altitude 03:18:33 50° 232° (SW) 991 4.2 -18.0°
Drops below altitude 10° 03:24:40 10° 159° (SSE) 2,797 6.9 -17.1°
Sets 03:27:50 0° 155° (SSE) 3,985 7.8 -16.6°
